Weather in Baga-Burul

Russia / Republic of Kalmykia     45°59′51″N   44°35′57″E
temp.,
°C
wind,
m/s
gust,
m/s
humid.,
%
clouds,
%
prec.,
mm/h
press.,
hPa
HPBL,
m
11 april, sun
sun1100:00+8wsw4685100 0.0 1019197
03:00+7w229239 0.0 101935
06:00+7w2392100 0.0 101967
09:00+12nw117387 0.0 1019462
12:00+16e345512 0.0 1018972
15:00+19ese684577 0.0 10171241
18:00+18nne2252100 0.0 101613
21:00+15e5125291 0.0 1017241
12 april, mon
mon1200:00+13e475445 0.0 1016110
03:00+12ene71656100 0.0 1016360
06:00+14ese81545100 0.0 1016567
09:00+14ese71154100 0.1 1019619
12:00+19ese91241100 0.0 10191151
15:00+19ese91244100 0.0 10191193
18:00+16ese71250100 0.0 1020602
21:00+14e61253100 0.0 1021456
13 april, tue
tue1300:00+12e4105726 0.0 1021262
03:00+10e366737 0.0 1021110
06:00+11e376588 0.1 1021193
09:00+16ese584742 0.1 1021568
12:00+18se61150100 0.4 10201216
15:00+20sse71237100 0.4 10202021
18:00+16sse3659100 0.0 1020221
21:00+13ese5114979 0.0 1021260
14 april, wed
wed1400:00+11e485364 0.0 1020143
03:00+9ene335298 0.0 101940
06:00+10ene3551100 0.0 1018101
09:00+15e344192 0.0 1017440
12:00+20ese572843 0.0 10161405
15:00+21sse6928100 0.0 10151980
18:00+15sse6861100 0.1 1017391
21:00+13ssw2276100 0.2 101782
15 april, thu
thu1500:00+12nw2286100 0.1 101782
03:00+10wnw22924 0.2 101735
06:00+9wnw349225 0.0 101790
09:00+15wnw33670 0.0 1017513
12:00+18wnw22460 0.0 10161275
15:00+20nw11361 0.0 10151611
18:00+19wnw114517 0.0 101412
21:00+16wnw2249100 0.0 101531